sat.trackr.live / text

‹ back to catalog

EUTELSAT 9B

NORAD 41310 · 2016-005A

PAYLOAD ACTIVE UNKNOWN

§ Identity

Operator
Country
EUTE
Launch date
2016-01-29
Launch site
TYMSC
Launch vehicle
Mass (kg)
RCS (m²)
39.91

Purposes: comms

External: N2YO · Heavens-Above · Gunter

§ Orbital elements

Epoch: 2026-09-08T17:34:03.020160Z

Period
1,436.10 min
Inclination
0.0425°
Eccentricity
0.0002389
Mean motion
1.00271339 rev/d
Perigee alt
35,776.6 km
Apogee alt
35,796.8 km
Semi-major
42,164.9 km
B*
0.0000e+0
RAAN
68.5179°
Arg perigee
139.3924°
Mean anomaly
52.3805°
Rev number
3,895

§ Raw data

EUTELSAT 9B1 41310U 16005A   26251.73197940  .00000040  00000+0  00000+0 0  99992 41310   0.0425  68.5179 0002389 139.3924  52.3805  1.00271339 38955

JSON: /api/v1/satellites/41310 · /tle

For live sub-satellite position, see the globe view (requires WebGL).

§ Visibility from observer

Set your observer location to see the next 7 days of passes ≥ 10°. The values pass through the URL so the page stays shareable.

No JS? Fill the form by hand. The geolocation button needs JavaScript.